Back to catalog

COSMOS 1275 DEB

AlivePO
NORAD 15768·DEBRIS·🇷🇺 Russia

Launched Jun 4, 1981 from Plesetsk Cosmodrome

Loading…

Next Passes (next 24 hours)

TLE

FreshSource: Space-Track

Epoch: Sep 13, 2026, 16:09 UTC

1 15768U 81053KD  26256.67321157  .00002100  00000-0  96892-3 0  9997
2 15768  83.0600 132.4877 0049065  47.2064   8.6511 14.19961032106212

Track COSMOS 1275 DEB in real time with AllMySat

Download on the App Store